Cleveland, OH

3:03 PM EDT on September 29, 2016 (GMT -0400)
Burke Lakefront

Weather History for KBKL - July, 2012

Change the Weather History Date:

Thursday, July 26, 2012

  Actual Average Record
Temperature  
Mean Temperature 78 °F -  
Max Temperature 86 °F 79 °F 97 °F (2005)
Min Temperature 71 °F 65 °F 57 °F (2013)
Cooling Degree Days 12    
Growing Degree Days 28 (Base 50)    
Moisture  
Dew Point 71 °F    
Average Humidity 75    
Maximum Humidity 94    
Minimum Humidity 58    
Precipitation  
Precipitation 0.32 in - - ()
Sea Level Pressure  
Sea Level Pressure 29.66 in    
Wind  
Wind Speed 11 mph (WSW)    
Max Wind Speed 34 mph    
Max Gust Speed 52 mph    
Visibility 9 miles    
Events Fog , Rain , Thunderstorm    
Averages and records for this station are not official NWS values.
T = Trace of Precipitation, MM = Missing Value Source: NWS Daily Summary

Daily Weather History Graph

Daily Weather History Graph

Search for Another Location

Airport or City:

Trip Planner

Search our weather history database for the weather conditions in past years. The results will help you decide how hot, cold, wet, or windy it might be!

Date:

Astronomy

Jul. 26, 2012 Rise Set
Actual Time 6:16 AM EDT 8:49 PM EDT
Civil Twilight 5:44 AM EDT 9:21 PM EDT
Nautical Twilight 5:04 AM EDT 10:01 PM EDT
Astronomical Twilight 4:19 AM EDT 10:45 PM EDT
Moon 2:35 PM EDT (7/26) 12:08 AM EDT (7/26)
Length of Visible Light 15h 37m
Length of Day
14h 33m
First Quarter, 53% of the Moon is Illuminated
Jul 26
First Quarter
Aug 1
Full
Aug 9
Last Quarter
Aug 17
New
Aug 24
First Quarter

Hourly Weather History & Observations

Time (EDT) Temp. Heat Index Dew Point Humidity Pressure Visibility Wind Dir Wind Speed Gust Speed Precip Events Conditions
12:53 AM 82.9 °F 85.4 °F 66.9 °F 58% 29.66 in 10.0 mi South 13.8 mph 25.3 mph N/A   Clear
1:53 AM 84.0 °F 88.4 °F 70.0 °F 63% 29.63 in 10.0 mi South 20.7 mph 29.9 mph N/A   Partly Cloudy
2:53 AM 84.0 °F 89.0 °F 71.1 °F 65% 29.62 in 10.0 mi SSW 19.6 mph 29.9 mph N/A   Clear
3:53 AM 84.0 °F 89.6 °F 72.0 °F 67% 29.61 in 10.0 mi SSW 13.8 mph 24.2 mph N/A   Clear
4:53 AM 78.1 °F - 70.0 °F 76% 29.65 in 10.0 mi NNE 12.7 mph - N/A   Mostly Cloudy
5:53 AM 79.0 °F - 66.9 °F 66% 29.66 in 10.0 mi ESE 4.6 mph - N/A   Scattered Clouds
6:53 AM 80.1 °F 82.7 °F 68.0 °F 67% 29.66 in 10.0 mi Calm Calm - N/A   Overcast
7:53 AM 81.0 °F 83.3 °F 66.9 °F 62% 29.66 in 10.0 mi ESE 6.9 mph - N/A   Overcast
8:53 AM 84.9 °F 89.4 °F 70.0 °F 61% 29.66 in 8.0 mi SSW 5.8 mph - N/A   Clear
9:53 AM 84.0 °F 89.0 °F 71.1 °F 65% 29.67 in 10.0 mi West 6.9 mph - N/A   Mostly Cloudy
10:53 AM 82.9 °F 88.8 °F 73.0 °F 72% 29.65 in 9.0 mi West 10.4 mph - N/A   Clear
11:53 AM 82.9 °F 87.0 °F 70.0 °F 65% 29.65 in 10.0 mi NNW 3.5 mph - N/A   Overcast
12:53 PM 82.0 °F 86.3 °F 71.1 °F 69% 29.67 in 10.0 mi NNE 3.5 mph - 0.00 in   Scattered Clouds
1:53 PM 82.9 °F 87.0 °F 70.0 °F 65% 29.65 in 10.0 mi West 6.9 mph - N/A   Clear
2:53 PM 84.9 °F 92.1 °F 73.9 °F 69% 29.62 in 9.0 mi WNW 10.4 mph - N/A   Partly Cloudy
3:53 PM 84.0 °F 91.2 °F 73.9 °F 72% 29.62 in 10.0 mi NW 9.2 mph - N/A   Mostly Cloudy
4:53 PM 82.0 °F 87.9 °F 73.9 °F 76% 29.62 in 10.0 mi West 4.6 mph - 0.00 in   Mostly Cloudy
5:53 PM 80.1 °F 84.5 °F 73.9 °F 81% 29.65 in 10.0 mi WNW 4.6 mph - N/A   Mostly Cloudy
6:41 PM 78.8 °F - 71.6 °F 78% 29.72 in 0.8 mi West 34.5 mph 51.8 mph 0.12 in Rain Rain
6:47 PM 71.6 °F - 69.8 °F 94% 29.69 in 0.2 mi West 17.3 mph 51.8 mph 0.28 in Fog , Rain , Thunderstorm Heavy Thunderstorms and Rain
6:53 PM 73.0 °F - 71.1 °F 93% 29.67 in 10.0 mi NW 16.1 mph 25.3 mph 0.32 in Thunderstorm Thunderstorm
7:00 PM 73.4 °F - 69.8 °F 88% 29.67 in 8.0 mi NW 10.4 mph 21.9 mph N/A Thunderstorm Thunderstorm
7:15 PM 73.4 °F - 71.6 °F 94% 29.68 in 10.0 mi NW 5.8 mph - N/A   Overcast
7:53 PM 73.9 °F - 71.1 °F 91% 29.66 in 10.0 mi SW 4.6 mph - N/A   Mostly Cloudy
8:53 PM 75.0 °F - 70.0 °F 84% 29.68 in 10.0 mi SSW 4.6 mph - N/A   Clear
9:53 PM 75.0 °F - 70.0 °F 84% 29.69 in 10.0 mi South 3.5 mph - N/A   Mostly Cloudy
10:53 PM 75.0 °F - 70.0 °F 84% 29.69 in 10.0 mi South 6.9 mph - N/A   Clear
11:53 PM 75.0 °F - 70.0 °F 84% 29.69 in 10.0 mi South 5.8 mph - N/A   Clear